TOURFACTS.DK  
Stats and Facts from Tour de France.

Tour de France 2018 starts in 12 days
  Riders   Stages   Teams   Summits   Yearly  


 
Search by year

After 2017 - Stage 21:
 14824 starters.
  5132 different riders.
  639 teams.
  2232 stages.
  456 restdays.
  439589.60 km.
  5653 abandonnees.


Top 3
GC
Christopher Froome86:20:55
Rigoberto Urán86:21:49
Romain Bardet86:23:15
Climb
Warren Barguil169 pt.
Primoz Roglic80 pt.
Thomas De Gendt64 pt.
Sprint
Michael Matthews359 pt.
André Greipel234 pt.
Edvald Boasson Hagen220 pt.
Youth
Simon Yates86:27:09
Louis Meintjes86:29:15
Emanuel Buchmann86:54:16
Facts from Tour de France 1949
  |   Stages.  |   Stage winners.  |   Days in yellow  |   Average speed.  |   Route.  |   Teams.  |   All riders.  |   Rookies.  |  

  |   Withdrawls.  |   GC.  |   Polka  |   Green  |   White  |   Summits. (In tour)  |   Miscellaneous.  |  

Stage 7 on 07 - 07 - 1949
         Owning:    Jacques Marinelli    
Pick a stage:  1 2 3 4 5 6 7 8 9 10 11 12 13 14 15 16 17 18 19 20 21
  Les Sables-d´OlonneLa Rochelle | Dist: 92.00 km.

Average speed for all riders in stage:  37,307 km./hr.
    Place:Name:Team:Time:Km/h:
ITAFausto CoppiITAItaly02:18:10  +  00:00:00=39,952 
SUIFerdi KüblerCHESwitzerland02:19:42  +  00:01:32=39,513 
BELRik Van SteenbergenBELBelgium02:20:57  +  00:02:47=39,163 
4 ITAGuido De SantiITAItaly02:21:28  +  00:03:18=39,020 
5 ITABruno PasquiniITAItaly02:21:59  +  00:03:49=38,878 
6 ITAGino BartaliITAItaly02:22:41  +  00:04:31=38,687 
7 ITAGiuseppe AusendaITACadetti Italiens02:23:00  +  00:04:50=38,601 
8 ITAGiovanni CorrieriITAItaly02:23:05  +  00:04:55=38,579 
9 FRAMarcel DussaultFRACenter-South West02:23:24  +  00:05:14=38,494 
10 ITANello LaurediFRASouth-East02:23:50  +  00:05:40=38,378 
11 BELRoger GhyselinckBELBelgium02:23:51  +  00:05:41=38,373 
12 ITASerifano BiagioniITAItaly02:24:17  +  00:06:07=38,258 
13 FRALouis DeprezFRAFrance02:24:51  +  00:06:41=38,108 
14 ITAGiuseppe TaccaFRAIle De France02:24:52  +  00:06:42=38,104 
15 FRAPierre CoganFRAWest-North02:25:06  +  00:06:56=38,043 
16 MARCustodio Dos ReisFRACenter-South West02:25:08  +  00:06:58=38,034 
17 FRAGuy LapébieFRAFrance02:25:11  +  00:07:01=38,021 
18 ITASylvio PedroniITACadetti Italiens02:25:15  +  00:07:05=38,003 
19 FRAAntonin RollandFRASouth-East02:25:25  +  00:07:15=37,960 
20 ITAVincenzo RosselloITAItaly02:25:28  +  00:07:18=37,947 
21 FRAGeorges RamouluxFRACenter-South West02:25:29  +  00:07:19=37,942 
22 FRAJacques MarinelliFRAIle De France02:25:42  +  00:07:32=37,886 
23 FRARoger LevequeFRACenter-South West02:25:43  +  00:07:33=37,882 
24 BELRoger LambrechtBELBelgium02:25:46  +  00:07:36=37,869 
25 ITAFermo CamelliniFRASouth-East02:25:52  +  00:07:42=37,843 
26 FRARaymond LucasFRAIle De France02:26:02  +  00:07:52=37,800 
27 LUXJean DiederichLUXLuxembourg02:26:05  +  00:07:55=37,787 
28 BELStan OckersBELBelgium02:26:06  +  00:07:56=37,782 
29 FRARobert DesbatsFRACenter-South West02:26:06  +  00:07:56=37,782 
30 BELRaymond ImpanisBELBelgium02:26:08  +  00:07:58=37,774 
31 FRABernard GauthierFRAFrance02:26:10  +  00:08:00=37,765 
32 LUXJean GoldschmitLUXLuxembourg02:26:18  +  00:08:08=37,731 
33 LUXMarcel ErnzerLUXLuxembourg02:26:35  +  00:08:25=37,658 
34 FRAGeorges MartinFRASouth-East02:26:35  +  00:08:25=37,658 
35 ITAGino SciardisITAItaly02:26:38  +  00:08:28=37,645 
36 ITAÉdouard FachleitnerFRASouth-East02:26:39  +  00:08:29=37,641 
37 BELMarcel DupontBELAiglons Belges02:26:45  +  00:08:35=37,615 
38 FRAAlbert DolhatsFRACenter-South West02:26:58  +  00:08:48=37,560 
39 FRAPaul GiguetFRASouth-East02:27:09  +  00:08:59=37,513 
40 BELFlorent MathieuBELBelgium02:27:12  +  00:09:02=37,500 
41 BELMarcel De MulderBELAiglons Belges02:27:31  +  00:09:21=37,420 
42 FRARoger Le NizerhyFRAWest-North02:27:32  +  00:09:22=37,415 
43 ITAAngelo BrignoleITAItaly02:27:35  +  00:09:25=37,403 
44 FRAJean BlancFRACenter-South West02:27:38  +  00:09:28=37,390 
45 LUXJean KirchenLUXLuxembourg02:27:52  +  00:09:42=37,331 
46 FRAJean ReyFRASouth-East02:27:55  +  00:09:45=37,318 
47 ITAVittorio MagniITACadetti Italiens02:28:11  +  00:10:01=37,251 
48 ITALuciano PezziITAItaly02:28:17  +  00:10:07=37,226 
49 BELJoseph VerhaertBELAiglons Belges02:28:23  +  00:10:13=37,201 
50 FRAGeorges GuillierFRAIle De France02:28:25  +  00:10:15=37,193 
51 FRAAndre MahéFRAWest-North02:28:41  +  00:10:31=37,126 
52 FRAAndré BruléFRAIle De France02:28:44  +  00:10:34=37,113 
53 FRALouison BobetFRAFrance02:28:46  +  00:10:36=37,105 
54 SUIPierre BrambillaFRASouth-East02:28:53  +  00:10:43=37,076 
55 FRARaphaël GeminianiFRAFrance02:29:01  +  00:10:51=37,043 
56 NEDHenk de HoogNLDHolland02:29:01  +  00:10:51=37,043 
57 FRAJean RobicFRAWest-North02:29:09  +  00:10:59=37,010 
58 FRAJean-Apotre LazaridesFRAFrance02:29:13  +  00:11:03=36,993 
59 FRALouis CaputFRAIle De France02:29:30  +  00:11:20=36,923 
60 NEDWim De RuyterNLDHolland02:29:32  +  00:11:22=36,915 
61 FRACamille DanguillaumeFRAFrance02:29:35  +  00:11:25=36,903 
62 SUIGeorges AeschlimannCHESwitzerland02:29:52  +  00:11:42=36,833 
63 FRAPaul PineauFRACenter-South West02:30:06  +  00:11:56=36,775 
64 ITAArmando PeverelliITACadetti Italiens02:30:12  +  00:12:02=36,751 
65 ITAEttore MilanoITAItaly02:30:15  +  00:12:05=36,739 
66 FRALucien LazaridesFRAFrance02:30:16  +  00:12:06=36,735 
67 FRAHenri MassalFRACenter-South West02:30:17  +  00:12:07=36,731 
68 ITAAdolphe DeleddaFRASouth-East02:30:31  +  00:12:21=36,674 
69 FRAJean-Marie GoasmatFRAWest-North02:30:47  +  00:12:37=36,609 
70 BELBriek SchotteBELBelgium02:30:51  +  00:12:41=36,593 
71 FRAMaurice DiotFRAFrance02:31:07  +  00:12:57=36,528 
72 ITAAlfredo MartiniITACadetti Italiens02:31:12  +  00:13:02=36,508 
73 FRARené ViettoFRAFrance02:31:16  +  00:13:06=36,492 
74 FRARobert ChapatteFRAFrance02:31:22  +  00:13:12=36,468 
75 BELDésiré KeteleerBELBelgium02:31:23  +  00:13:13=36,464 
76 FRALucien TeisseireFRAFrance02:31:31  +  00:13:21=36,432 
77 NEDFrans PauwelsNLDHolland02:31:52  +  00:13:42=36,348 
78 SUIRoger AeschlimannCHESwitzerland02:32:10  +  00:14:00=36,276 
79 BELEdward Van DijckBELBelgium02:32:46  +  00:14:36=36,134 
80 SUIGottfried WeilenmannCHESwitzerland02:32:47  +  00:14:37=36,130 
81 BELJacques GeusBELAiglons Belges02:32:52  +  00:14:42=36,110 
82 GERCésar MarcelakFRAWest-North02:33:05  +  00:14:55=36,059 
83 FRAEdouard MullerFRAIle De France02:33:17  +  00:15:07=36,012 
84 ITAMario RicciITAItaly02:34:22  +  00:16:12=35,759 
85 BELNorbert CallensBELBelgium02:34:24  +  00:16:14=35,751 
86 BELMarcel HendrickxBELAiglons Belges02:37:13  +  00:19:03=35,111 
87 FRAAnge Le StratFRAWest-North02:44:10  +  00:26:00=33,624 


Todays birthdays.

1875  Jules Sales
1888  Leon Lannoy
1922  Henri Surbatis
1932  Ferdinand Devèze
1939  Dieter Puschel
1961  Gerhard Zadrobilek
1964  Javier Duch
1965  Clarence Knickman
1968  Michael Sandstød
1986  Simon Spilak




Visits: